This is the latest recevied weather packets stored in our database for station/object OK1HOL-13. If no packets are shown the sender has not sent any weather packets the latest 1 day(s).
| Time | Temp. | Humidity | Pressure | Rain* | Wind** | Luminosity | Snow |
|---|---|---|---|---|---|---|---|
| 1778054763 | 17.22° C | 60% | 1007.1 hPa | - | - | 130 W/m² | - |
| 1778054163 | 17.22° C | 60% | 1007 hPa | - | - | 90 W/m² | - |
| 1778053563 | 16.67° C | 63% | 1006.9 hPa | - | - | 79 W/m² | - |
| 1778052963 | 16.67° C | 63% | 1006.9 hPa | - | - | 103 W/m² | - |
| 1778052363 | 16.11° C | 64% | 1007 hPa | - | - | 180 W/m² | - |
| 1778051763 | 16.67° C | 64% | 1006.9 hPa | - | - | 230 W/m² | - |
| 1778051163 | 16.67° C | 65% | 1006.9 hPa | - | - | 114 W/m² | - |
| 1778050563 | 16.11° C | 66% | 1006.9 hPa | - | - | 158 W/m² | - |
| 1778049363 | 15.56° C | 71% | 1006.8 hPa | - | - | 115 W/m² | - |
| 1778048763 | 15° C | 72% | 1006.9 hPa | - | - | 95 W/m² | - |
| 1778046963 | 14.44° C | 74% | 1006.9 hPa | - | - | 63 W/m² | - |
| 1778046363 | 14.44° C | 75% | 1006.9 hPa | - | - | 40 W/m² | - |
| 1778045763 | 14.44° C | 76% | 1006.8 hPa | - | - | 32 W/m² | - |
| 1778045163 | 14.44° C | 76% | 1006.9 hPa | - | - | 33 W/m² | - |
| 1778044563 | 14.44° C | 76% | 1007 hPa | - | - | 31 W/m² | - |
| 1778043963 | 13.89° C | 76% | 1007 hPa | - | - | 26 W/m² | - |
| 1778043363 | 13.89° C | 77% | 1006.9 hPa | - | - | 19 W/m² | - |
| 1778042763 | 13.89° C | 76% | 1006.6 hPa | - | - | 19 W/m² | - |
| 1778042163 | 13.89° C | 79% | 1006.6 hPa | - | - | 17 W/m² | - |
| 1778041563 | 13.33° C | 80% | 1006.5 hPa | - | - | 11 W/m² | - |
| 1778040963 | 13.33° C | 80% | 1006.7 hPa | - | - | 10 W/m² | - |
| 1778040363 | 13.33° C | 81% | 1006.5 hPa | - | - | 7 W/m² | - |
| 1778039763 | 13.33° C | 80% | 1006.2 hPa | - | - | 5 W/m² | - |
| 1778039163 | 13.33° C | 80% | 1006.1 hPa | - | - | 3 W/m² | - |
| 1778038563 | 13.33° C | 80% | 1006.1 hPa | - | - | 1 W/m² | - |
* Rain since midnight (hover to see other rain measurements)
** Current wind speed in m/s (hover to see current wind gust speed)